NOAA NWS Hourly Roundups by Site

Regional Weather Roundup for Bismarck, ND

To Select Another Site Choose from List

Select Site:  

000
ASUS43 KBIS 190810
RWRBIS

NWR BROADCAST TEXT
NATIONAL WEATHER SERVICE BISMARCK ND
200 AM CST MON NOV 19 2018

NOTE: "FAIR" INDICATES FEW OR NO CLOUDS BELOW 12,000 FEET WITH NO
SIGNIFICANT WEATHER AND/OR OBSTRUCTIONS TO VISIBILITY.


CITY           SKY/WX    TMP DP  RH WIND       PRES   REMARKS
WILLISTON      CLOUDY    20  15  81 NE7       30.09R WCI  11
MINOT          CLOUDY    10   6  84 NE7       30.14R WCI  -1
MINOT AFB      CLOUDY    10   6  82 E6        30.14R WCI   1
BISMARCK       CLOUDY    17  14  88 NE10      30.09R WCI   5
DICKINSON      LGT SNOW  25  22  88 NE6       30.00R FOG     WCI  18
GARRISON         N/A     14   9  80 MISG      30.09R
HETTINGER ARPT CLOUDY    30  28  92 N10       30.01R
JAMESTOWN      CLOUDY    13  10  88 N16       30.08R WCI  -3
CARRINGTON     CLOUDY    12   9  85 N13       30.13R WCI  -3
HAZEN          CLOUDY    16  14  93 E9        30.11R WCI   4
LINTON           N/A     21  18  86 NE14G20   30.06R WCI   8
MANDAN         CLOUDY    16  16 100 NE13      30.07R WCI   2
OAKES          CLOUDY    16  16 100 N13       30.07R WCI   2
STANLEY        CLOUDY    12  12 100 E9        30.09R WCI   0
TIOGA          CLOUDY    14  12  92 E8        30.10R WCI   3
WATFORD CITY   CLOUDY    19  19 100 E8        30.08R FOG     WCI   9
$$

CITY           SKY/WX    TMP DP  RH WIND       PRES   REMARKS
GRAND FORKS    CLOUDY     9   4  80 N16       30.16R WCI  -8
GRAND FORKS AF CLOUDY    10   4  77 N15       30.16R WCI  -7
DEVILS LAKE    CLEAR      5   1  83 N15       30.16R WCI -13
FARGO          MOCLDY    17  14  88 N15       30.09R WCI   2
CANDO          CLOUDY     5   1  85 NE10      30.19R WCI -10
CAVALIER       FAIR       3  -2  78 N12       30.22R WCI -13
GRAFTON        CLOUDY     9   3  78 N15G23    30.21R WCI  -8
GWINNER          N/A     18  14  86 CALM      30.06S
LANGDON        FAIR       1   1 100 N12       30.15R WCI -15
ROLLA          CLOUDY     3   1  92 NE10      30.15R WCI -12
WALHALLA         N/A      1   1 100 N8        30.23R WCI -12
$$

CITY           SKY/WX    TMP DP  RH WIND       PRES   REMARKS
ABERDEEN       CLOUDY    21  18  88 NE13      30.06R WCI   9
MOBRIDGE       CLOUDY    31  26  82 NE3       29.99R
BUFFALO          N/A     35  30  82 NW20      29.98R
RAPID CITY     CLOUDY    35  28  75 N6        30.03R
GLASGOW        CLOUDY    35  32  88 NW6       30.06R
SIDNEY         CLOUDY    26  24  92 NE7       30.07R WCI  18
WOLF POINT     CLOUDY    30  27  88 CALM      30.08R
GLENDIVE       CLOUDY    33  32  96 NW12      30.05R FOG
MILES CITY     MOCLDY    36  32  85 NW15      30.07R
BAKER          CLOUDY    33  31  92 NW13      30.02R
$$

CITY           SKY/WX    TMP DP  RH WIND       PRES   REMARKS
BILLINGS       CLOUDY    32  21  64 SW15      30.12R
GREAT FALLS    CLOUDY    32  23  69 SW9       30.15R
REGINA         CLOUDY     9   5  85 E12       30.16R WCI  -6
ESTEVAN        CLEAR      5   1  85 E6        30.15R WCI  -6
$$



 

View Past Reports for Bismarck, ND.

Products Courtesy of NOAA-NWS
NWS Information Parsing Script by Ken True at Saratoga Weather - Script by SE Lincoln Weather.